Home > Weather > Maputo > Past weeks

Flag for Mozambique Weather for the Past 2 Weeks in Maputo, Mozambique

Now
86 °F

Passing clouds.


Feels Like: 87 °F
Forecast: 72 / 89 °F
Wind: 14 mph from East

Location: Maputo / Mavalane

Current Time: Feb 6, 2016 at 3:26:33 PM

Latest Report: Feb 6, 2016 at 3:00 PM


Visibility: N/A

Pressure: 29.89 "Hg

Humidity: 49%

Dew point: 64 °F

Location of MaputoLocation

Historic Weather in Maputo — Graph

°F

Maputo Temperature Yesterday

Maximum temperature yesterday: 86 °F (at 11:00 AM)
Minimum temperature yesterday: 72 °F (at 5:00 AM)
Average temperature yesterday: 79 °F

High & Low Weather Summary for the Past Weeks

 TemperatureHumidityPressure
High99 °F (Jan 31, 7:00 PM)94% (Jan 25, 5:00 AM)30.12 "Hg (Jan 25, 5:00 AM)
Low70 °F (Feb 6, 5:00 AM)29% (Jan 22, 2:00 PM)29.65 "Hg (Jan 24, 5:00 PM)
Average82 °F67%29.95 "Hg
* Reported Jan 22 2:00 PM — Feb 6 2:00 PM, Maputo, Weather by CustomWeather, © 2016

Note: Actual official high and low records may vary slightly from our data, if they occured in-between our weather recording intervals... More about our weather records

Advertising

Maputo Weather History for the Previous 24 Hours

 ConditionsComfort  
Time TempWeatherWind HumidityBarometerVisibility
2:00 PM
Sat, Feb 6
88 °FScattered clouds.14 mph43%29.92 "HgN/A
1:00 PM88 °FScattered clouds.7 mph40%29.92 "HgN/A
12:00 PM84 °FScattered clouds.8 mph43%29.95 "HgN/A
11:00 AM84 °FScattered clouds.12 mph48%29.98 "HgN/A
10:00 AM84 °FPassing clouds.10 mph45%29.98 "HgN/A
9:00 AM82 °FPassing clouds.10 mph51%30.01 "HgN/A
8:00 AM79 °FPassing clouds.14 mph58%30.04 "HgN/A
7:00 AM73 °FScattered clouds.9 mph69%30.04 "HgN/A
6:00 AM73 °FScattered clouds.9 mph69%30.04 "HgN/A
5:00 AM70 °FPassing clouds.10 mph78%30.01 "HgN/A
4:00 AM72 °FPassing clouds.12 mph73%30.01 "HgN/A
2:00 AM72 °FPassing clouds.14 mph73%30.01 "HgN/A
1:00 AM72 °FPassing clouds.15 mph73%30.04 "HgN/A
12:00 AM73 °FPassing clouds.9 mph74%30.04 "HgN/A
11:00 PM
Fri, Feb 5
75 °FPassing clouds.12 mph69%30.04 "HgN/A
10:00 PM77 °FPassing clouds.15 mph65%30.04 "HgN/A
9:00 PM77 °FPassing clouds.17 mph69%30.01 "HgN/A
7:00 PM81 °FPassing clouds.16 mph58%29.95 "HgN/A
6:00 PM81 °FPassing clouds.13 mph54%29.95 "HgN/A
5:00 PM82 °FScattered clouds.15 mph55%29.92 "HgN/A
4:00 PM84 °FScattered clouds.15 mph51%29.92 "HgN/A
3:00 PM86 °FScattered clouds.13 mph49%29.92 "HgN/A
Weather by CustomWeather, © 2016

See weather overviewHow to use our weather pages